TJS-10

Last updated on Sun Apr 12 2026 00:02:56 GMT+0000 (Coordinated Universal Time)

1 58204U 23169A 26101.78695203 -.00000179 00000+0 00000+0 0 9996 2 58204 2.3723 81.2615 0001320 49.7500 72.7438 1.00462434 8870
UTC large
Height (km)
Speed (km/s)
/
Latitude / Longitude
Inclination (degrees)
Orbital Period (minutes)
Azimuth
Elevation
Range (km)
Doppler Factor

Next 0 passes for location: London (51.5072 / 0.1276)

Sorry there are no passes over London.
TJS-10